Amsterdam, Netherlands

6:22 PM CEST on October 14, 2019 (GMT +0200)
Schiphol

Weather History for EHAM - August, 2019

Change the Weather History Date:

Saturday, August 17, 2019

  Actual Average Record
Temperature  
Mean Temperature 66 °F -  
Max Temperature 70 °F 66 °F 84 °F (2002)
Min Temperature 60 °F 53 °F 50 °F (1996)
Growing Degree Days 16 (Base 50)    
Moisture  
Dew Point 60 °F    
Average Humidity 83    
Maximum Humidity 100    
Minimum Humidity 62    
Precipitation  
Precipitation 0.04 in - - ()
Sea Level Pressure  
Sea Level Pressure 29.69 in    
Wind  
Wind Speed 13 mph ()    
Max Wind Speed 20 mph    
Max Gust Speed -    
Visibility 7.0 miles    
Events Rain    
Averages and records for this station are not official NWS values.
T = Trace of Precipitation, MM = Missing Value Source: Averaged Metar Reports

Daily Weather History Graph

Daily Weather History Graph

Search for Another Location

Airport or City:

Astronomy

Aug. 17, 2019 Rise Set
Actual Time 6:26 AM CEST 9:02 PM CEST
Civil Twilight 5:48 AM CEST 9:40 PM CEST
Nautical Twilight 4:59 AM CEST 10:28 PM CEST
Astronomical Twilight 4:00 AM CEST 11:27 PM CEST
Moon 10:11 PM CEST (8/17) 8:06 AM CEST (8/17)
Length of Visible Light 15h 51m
Length of Day
14h 35m
Full, 97% of the Moon is Illuminated
Aug 17
Full
Aug 23
Last Quarter
Aug 30
New
Sep 6
First Quarter
Sep 14
Full

Hourly Weather History & Observations

Time (CEST) Temp. Dew Point Humidity Pressure Visibility Wind Dir Wind Speed Gust Speed Precip Events Conditions
12:25 AM 62.6 °F 59.0 °F 88% 29.77 in 6.2 mi South 11.5 mph - N/A Rain Light Rain
12:55 AM 62.6 °F 59.0 °F 88% 29.77 in 6.2 mi South 12.7 mph - N/A Rain Light Rain
1:25 AM 62.6 °F 59.0 °F 88% 29.74 in 6.2 mi South 13.8 mph - N/A Rain Light Rain
1:55 AM 62.6 °F 59.0 °F 88% 29.74 in 6.2 mi South 11.5 mph - N/A   Partly Cloudy
2:00 AM 63 °F 59 °F 83% 29.74 in 19 mi South 13.4 mph - - Rain Rain
2:25 AM 62.6 °F 59.0 °F 88% 29.71 in 6.2 mi South 12.7 mph - N/A   Scattered Clouds
2:55 AM 62.6 °F 59.0 °F 88% 29.71 in 6.2 mi South 11.5 mph - N/A   Partly Cloudy
3:25 AM 62.6 °F 59.0 °F 88% 29.71 in 6.2 mi South 12.7 mph - N/A   Scattered Clouds
3:55 AM 62.6 °F 59.0 °F 88% 29.68 in 6.2 mi South 12.7 mph - N/A   Scattered Clouds
4:00 AM 63 °F 58 °F 80% 29.70 in 22 mi South 13.4 mph - - Rain Rain
4:25 AM 62.6 °F 59.0 °F 88% 29.68 in 6.2 mi SSW 15.0 mph - N/A Rain Light Rain
4:55 AM 62.6 °F 59.0 °F 88% 29.68 in 5.6 mi SSW 13.8 mph - N/A Rain Light Rain
5:00 AM 62 °F 59 °F 86% 29.69 in 5 mi SSW 15.7 mph - - Rain Drizzle
5:25 AM 60.8 °F 59.0 °F 94% 29.68 in 4.3 mi SSW 15.0 mph - N/A Rain Rain
5:55 AM 60.8 °F 59.0 °F 94% 29.68 in 5.6 mi South 17.3 mph - N/A Rain Rain
6:00 AM 61 °F 60 °F 94% 29.68 in 4 mi South 15.7 mph - - Rain Light Drizzle
6:25 AM 60.8 °F 60.8 °F 100% 29.68 in 5.6 mi SSW 15.0 mph - N/A   Mostly Cloudy
6:55 AM 62.6 °F 60.8 °F 94% 29.65 in 6.2 mi SSW 13.8 mph - N/A   Mostly Cloudy
7:25 AM 62.6 °F 60.8 °F 94% 29.65 in 3.7 mi SSW 17.3 mph - N/A   Light Drizzle
7:55 AM 62.6 °F 60.8 °F 94% 29.68 in 6.2 mi SSW 18.4 mph - N/A   Mostly Cloudy
8:00 AM 63 °F 60 °F 88% 29.68 in 12 mi SSW 17.9 mph - - Rain Rain
8:25 AM 62.6 °F 60.8 °F 94% 29.68 in 6.2 mi SSW 16.1 mph - N/A   Mostly Cloudy
8:55 AM 62.6 °F 60.8 °F 94% 29.68 in 5.0 mi SSW 17.3 mph - N/A   Light Drizzle
9:00 AM 63 °F 61 °F 92% 29.69 in 3 mi SSW 15.7 mph - -   Mist
9:25 AM 62.6 °F 62.6 °F 100% 29.68 in 4.3 mi SSW 16.1 mph - N/A   Light Drizzle
9:55 AM 64.4 °F 62.6 °F 94% 29.68 in 2.8 mi SSW 16.1 mph - N/A   Light Drizzle
10:00 AM 64 °F 62 °F 91% 29.70 in 2 mi SSW 15.7 mph - -   Mist
10:25 AM 66.2 °F 62.6 °F 88% 29.68 in 6.2 mi SSW 15.0 mph - N/A   Mostly Cloudy
10:55 AM 66.2 °F 62.6 °F 88% 29.68 in 6.2 mi SSW 17.3 mph - N/A   Mostly Cloudy
11:00 AM 66 °F 62 °F 84% 29.70 in 14 mi SSW 15.7 mph - - Rain Rain
11:25 AM 66.2 °F 62.6 °F 88% 29.68 in 6.2 mi SSW 17.3 mph - N/A   Light Drizzle
11:55 AM 68.0 °F 62.6 °F 83% 29.68 in 6.2 mi SSW 18.4 mph - N/A   Mostly Cloudy
12:00 PM 68 °F 63 °F 80% 29.70 in 11 mi SSW 20.1 mph - -   Partly Cloudy
12:25 PM 69.8 °F 64.4 °F 83% 29.68 in 6.2 mi SSW 17.3 mph - N/A   Scattered Clouds
12:55 PM 69.8 °F 62.6 °F 78% 29.68 in 6.2 mi SSW 17.3 mph - N/A   Scattered Clouds
1:25 PM 69.8 °F 62.6 °F 78% 29.68 in 6.2 mi SSW 17.3 mph - N/A   Mostly Cloudy
1:55 PM 69.8 °F 62.6 °F 78% 29.68 in 6.2 mi SSW 17.3 mph - N/A   Scattered Clouds
2:00 PM 69 °F 63 °F 74% 29.70 in 19 mi SSW 15.7 mph - -   Partly Cloudy
2:25 PM 69.8 °F 62.6 °F 78% 29.68 in 6.2 mi SSW 16.1 mph - N/A   Scattered Clouds
2:55 PM 69.8 °F 60.8 °F 73% 29.68 in 6.2 mi SSW 15.0 mph - N/A Rain Light Rain
3:00 PM 67 °F 62 °F 80% 29.70 in 4 mi SSW 15.7 mph - - Rain Light Rain Showers
3:25 PM 68.0 °F 64.4 °F 88% 29.68 in 6.2 mi SSW 13.8 mph - N/A   Scattered Clouds
3:55 PM 68.0 °F 64.4 °F 88% 29.68 in 6.2 mi South 13.8 mph - N/A   Scattered Clouds
4:25 PM 68.0 °F 62.6 °F 83% 29.68 in 6.2 mi SSW 12.7 mph - N/A   Partly Cloudy
4:55 PM 68.0 °F 60.8 °F 78% 29.68 in 6.2 mi SW 13.8 mph - N/A   Partly Cloudy
5:00 PM 69 °F 59 °F 64% 29.70 in 25 mi SW 13.4 mph - -   Partly Cloudy
5:25 PM 68.0 °F 60.8 °F 78% 29.68 in 6.2 mi WSW 15.0 mph - N/A   Scattered Clouds
5:55 PM 68.0 °F 59.0 °F 73% 29.68 in 6.2 mi West 16.1 mph - N/A   Partly Cloudy
6:00 PM 67 °F 59 °F 67% 29.70 in 13 mi West 17.9 mph - -   Partly Cloudy
6:25 PM 68.0 °F 57.2 °F 68% 29.68 in 6.2 mi WSW 15.0 mph - N/A   Partly Cloudy
6:55 PM 68.0 °F 57.2 °F 68% 29.68 in 6.2 mi WSW 18.4 mph - N/A   Partly Cloudy
7:00 PM 67 °F 57 °F 62% 29.70 in 16 mi WSW 15.7 mph - -   Partly Cloudy
7:25 PM 66.2 °F 55.4 °F 68% 29.68 in 6.2 mi WSW 15.0 mph - N/A   Partly Cloudy
7:55 PM 66.2 °F 57.2 °F 73% 29.68 in 6.2 mi WSW 12.7 mph - N/A   Partly Cloudy
8:00 PM 66 °F 56 °F 62% 29.71 in 16 mi WSW 11.2 mph - -   Partly Cloudy
8:25 PM 64.4 °F 57.2 °F 77% 29.68 in 6.2 mi SW 9.2 mph - N/A   Partly Cloudy
8:55 PM 64.4 °F 59.0 °F 83% 29.68 in 6.2 mi SSW 8.1 mph - N/A   Partly Cloudy
9:25 PM 64.4 °F 59.0 °F 83% 29.71 in 6.2 mi SW 10.4 mph - N/A   Partly Cloudy
9:55 PM 62.6 °F 57.2 °F 82% 29.71 in 6.2 mi SW 10.4 mph - N/A   Partly Cloudy
10:00 PM 64 °F 58 °F 73% 29.72 in 9 mi SW 11.2 mph - -   Partly Cloudy
10:25 PM 62.6 °F 57.2 °F 82% 29.71 in 6.2 mi SW 11.5 mph - N/A   Partly Cloudy
10:55 PM 62.6 °F 57.2 °F 82% 29.71 in 6.2 mi SSW 8.1 mph - N/A   Partly Cloudy
11:25 PM 62.6 °F 57.2 °F 82% 29.71 in 6.2 mi SSW 8.1 mph - N/A   Partly Cloudy
11:55 PM 60.8 °F 57.2 °F 88% 29.71 in 6.2 mi SSW 8.1 mph - N/A   Partly Cloudy